Temp
-30 -30 -30 -30 -31 -30 -31 -31 -31 -30 -30 -30 -30 -30 -30 -30 -30 -30 -29 -28 -26 -24 -23 -23 -21 -20 -20 -19 -18 -18 -17 -17 -16 -17 -16 -15 -16 -16 -17 -18 -17 -15 -14 -13
-29 -30 -30 -30 -30 -30 -30 -30 -30 -30 -30 -30 -30 -30 -30 -30 -30 -30 -29 -28 -27 -26 -24 -23 -23 -20 -20 -21 -20 -19 -19 -19 -18 -18 -18 -19 -16 -16 -15 -16 -16 -16 -16 -13
-29 -30 -30 -31 -31 -31 -31 -31 -30 -30 -30 -30 -30 -30 -29 -29 -30 -29 -29 -28 -28 -27 -25 -24 -23 -23 -21 -20 -21 -20 -20 -20 -19 -17 -16 -16 -17 -16 -15 -15 -16 -15 -15 -13
-29 -30 -30 -30 -31 -30 -30 -30 -30 -30 -29 -29 -30 -29 -29 -29 -29 -29 -29 -28 -28 -28 -27 -25 -25 -23 -22 -21 -20 -20 -21 -20 -20 -17 -17 -19 -18 -18 -17 -18 -16 -17 -14 -15
-29 -29 -30 -30 -30 -30 -30 -30 -30 -30 -29 -29 -29 -29 -28 -29 -29 -29 -29 -29 -29 -29 -28 -26 -26 -24 -23 -21 -20 -21 -21 -20 -20 -19 -18 -18 -18 -19 -18 -18 -16 -16 -15 -14
-28 -28 -29 -30 -30 -30 -30 -29 -29 -29 -29 -29 -28 -28 -28 -29 -29 -29 -29 -29 -28 -28 -27 -27 -26 -25 -24 -22 -21 -20 -21 -20 -20 -20 -18 -18 -20 -18 -17 -16 -17 -17 -16 -13
-27 -27 -28 -28 -29 -30 -30 -29 -29 -28 -28 -28 -28 -28 -28 -28 -28 -28 -28 -28 -28 -29 -29 -28 -27 -25 -25 -23 -21 -21 -20 -20 -20 -19 -20 -20 -18 -16 -17 -18 -17 -17 -16 -14
-26 -27 -27 -27 -27 -28 -28 -28 -28 -27 -27 -27 -27 -27 -27 -27 -28 -28 -28 -28 -28 -28 -28 -29 -28 -27 -25 -24 -22 -22 -21 -21 -21 -20 -19 -18 -17 -16 -17 -17 -16 -16 -16 -14
-25 -26 -26 -26 -26 -26 -27 -27 -27 -27 -26 -27 -27 -27 -27 -27 -27 -27 -27 -27 -27 -28 -28 -28 -28 -27 -26 -24 -24 -22 -21 -21 -20 -20 -20 -20 -17 -17 -18 -18 -18 -16 -17 -14
-25 -25 -26 -26 -26 -26 -26 -27 -27 -27 -26 -26 -27 -26 -27 -27 -27 -26 -27 -27 -27 -28 -28 -28 -28 -27 -25 -25 -24 -23 -23 -22 -21 -20 -20 -18 -18 -17 -18 -18 -16 -17 -16 -16
-25 -25 -25 -26 -26 -26 -26 -27 -27 -27 -26 -25 -26 -27 -26 -27 -27 -26 -26 -27 -27 -27 -27 -27 -27 -26 -25 -24 -24 -23 -22 -22 -21 -20 -20 -19 -19 -18 -18 -17 -18 -18 -17 -17
-26 -26 -25 -25 -26 -26 -26 -26 -26 -27 -26 -25 -25 -25 -26 -26 -26 -26 -26 -26 -27 -27 -27 -26 -26 -26 -26 -25 -24 -23 -22 -21 -21 -20 -20 -19 -19 -19 -19 -18 -18 -17 -17 -17
-27 -26 -26 -26 -25 -26 -26 -26 -26 -26 -26 -25 -26 -25 -25 -25 -25 -25 -25 -25 -26 -26 -26 -27 -26 -26 -25 -24 -24 -23 -22 -22 -21 -20 -19 -19 -19 -19 -19 -18 -18 -18 -17 -17
-27 -27 -27 -26 -26 -25 -25 -26 -26 -26 -25 -25 -25 -26 -26 -25 -25 -25 -25 -25 -25 -26 -27 -27 -26 -26 -24 -25 -24 -24 -23 -22 -21 -21 -20 -20 -19 -19 -19 -18 -19 -19 -19 -18
-26 -27 -27 -27 -27 -26 -26 -25 -25 -25 -25 -25 -25 -26 -25 -25 -25 -25 -25 -25 -25 -26 -26 -26 -26 -25 -25 -25 -23 -23 -22 -22 -22 -21 -21 -21 -20 -19 -20 -20 -19 -19 -19 -19
-26 -27 -28 -27 -27 -27 -26 -26 -26 -25 -25 -25 -25 -25 -25 -25 -25 -25 -25 -25 -25 -26 -26 -26 -26 -26 -26 -25 -24 -23 -22 -23 -22 -22 -21 -21 -20 -20 -20 -20 -19 -19 -19 -18
-25 -26 -27 -27 -27 -27 -26 -26 -25 -25 -25 -25 -25 -25 -25 -25 -25 -25 -25 -26 -25 -25 -25 -25 -26 -26 -26 -25 -24 -23 -23 -22 -22 -22 -22 -21 -21 -20 -19 -20 -20 -20 -19 -19
-25 -26 -26 -27 -27 -27 -27 -26 -26 -25 -25 -25 -24 -24 -25 -25 -25 -25 -25 -25 -25 -25 -25 -26 -26 -26 -26 -25 -24 -23 -23 -22 -22 -23 -22 -22 -21 -21 -21 -20 -20 -20 -20 -19
-25 -26 -26 -27 -27 -28 -27 -27 -26 -26 -25 -25 -24 -24 -24 -24 -25 -25 -25 -25 -25 -25 -25 -25 -25 -25 -24 -24 -23 -23 -23 -23 -23 -23 -23 -23 -23 -22 -21 -21 -20 -21 -21 -20
-25 -26 -26 -26 -27 -28 -28 -27 -27 -26 -26 -25 -25 -25 -24 -24 -25 -25 -25 -25 -25 -25 -25 -25 -24 -24 -24 -24 -24 -24 -24 -24 -23 -23 -23 -22 -22 -22 -22 -21 -20 -21 -20 -20
-25 -26 -26 -26 -27 -28 -28 -28 -27 -27 -26 -26 -25 -25 -25 -25 -25 -25 -25 -25 -25 -25 -24 -24 -24 -24 -24 -24 -23 -24 -24 -23 -23 -23 -22 -22 -22 -22 -22 -21 -21 -21 -20 -20
-26 -26 -26 -26 -27 -27 -28 -28 -28 -27 -27 -26 -26 -26 -26 -25 -25 -25 -26 -26 -26 -25 -25 -24 -24 -24 -24 -24 -24 -24 -24 -24 -24 -23 -23 -23 -22 -22 -21 -21 -21 -21 -21 -21
-26 -26 -26 -26 -27 -27 -28 -28 -29 -28 -28 -27 -27 -27 -26 -26 -26 -26 -26 -26 -26 -26 -25 -25 -25 -25 -24 -24 -24 -24 -24 -23 -23 -23 -23 -23 -23 -22 -22 -23 -23 -23 -22 -22
-26 -26 -26 -26 -27 -27 -28 -28 -29 -29 -28 -28 -28 -27 -27 -27 -26 -26 -26 -26 -26 -26 -26 -25 -25 -25 -25 -24 -24 -24 -24 -24 -24 -24 -24 -24 -23 -23 -23 -23 -23 -23 -23 -23
-26 -26 -26 -26 -27 -27 -28 -28 -29 -29 -29 -29 -28 -28 -27 -27 -27 -27 -27 -26 -26 -26 -26 -26 -25 -25 -25 -25 -25 -25 -25 -25 -25 -25 -25 -25 -24 -24 -24 -24 -24 -24 -24 -24
-26 -26 -27 -26 -27 -27 -28 -28 -29 -29 -29 -29 -29 -29 -29 -28 -28 -27 -27 -27 -26 -26 -26 -26 -26 -26 -26 -26 -26 -26 -26 -26 -26 -26 -25 -25 -25 -25 -25 -25 -25 -25 -25 -25
-26 -26 -26 -26 -27 -27 -27 -28 -29 -29 -30 -30 -30 -30 -30 -30 -29 -28 -28 -28 -27 -27 -27 -27 -27 -26 -26 -26 -26 -26 -26 -26 -26 -26 -26 -26 -25 -25 -25 -25 -25 -25 -25 -25
Height
5425 5425 5426 5428 5430 5431 5433 5435 5438 5440 5441 5444 5445 5447 5450 5453 5455 5457 5462 5469 5479 5491 5506 5512 5522 5527 5539 5552 5561 5563 5580 5580 5586 5590 5600 5607 5608 5612 5617 5614 5622 5628 5634 5635
5421 5421 5421 5422 5424 5426 5428 5429 5432 5434 5436 5438 5440 5441 5443 5443 5448 5450 5454 5458 5469 5480 5487 5493 5501 5514 5523 5529 5536 5547 5559 5555 5564 5572 5581 5583 5586 5597 5605 5607 5614 5609 5616 5628
5417 5417 5418 5419 5419 5420 5423 5424 5427 5430 5432 5436 5436 5437 5437 5439 5442 5443 5445 5451 5454 5462 5470 5476 5485 5497 5511 5518 5523 5529 5530 5537 5541 5551 5564 5580 5575 5583 5590 5593 5593 5602 5602 5625
5413 5413 5414 5415 5416 5416 5418 5419 5424 5426 5428 5431 5432 5432 5433 5434 5436 5438 5439 5442 5446 5451 5456 5459 5463 5481 5498 5503 5511 5515 5518 5524 5530 5541 5552 5557 5561 5568 5573 5575 5581 5583 5597 5601
5412 5411 5411 5412 5413 5413 5414 5416 5419 5422 5424 5426 5426 5427 5429 5430 5433 5433 5434 5434 5438 5439 5441 5448 5454 5468 5475 5483 5491 5499 5507 5514 5519 5522 5536 5540 5542 5550 5556 5563 5567 5570 5578 5584
5412 5410 5409 5409 5410 5410 5411 5414 5416 5417 5419 5420 5420 5424 5424 5425 5425 5426 5428 5429 5431 5435 5445 5441 5443 5447 5448 5463 5473 5484 5492 5498 5503 5501 5522 5528 5520 5534 5541 5549 5555 5561 5560 5576
5411 5410 5409 5408 5408 5409 5409 5412 5412 5412 5415 5415 5417 5417 5417 5419 5419 5420 5422 5422 5423 5430 5426 5426 5428 5429 5437 5448 5459 5468 5476 5481 5485 5489 5499 5494 5514 5530 5530 5532 5539 5544 5548 5561
5411 5410 5408 5408 5408 5407 5408 5408 5408 5408 5408 5410 5411 5412 5412 5413 5414 5414 5416 5418 5420 5421 5420 5420 5420 5424 5427 5435 5445 5455 5465 5470 5475 5476 5486 5495 5510 5517 5519 5520 5525 5535 5537 5548
5410 5408 5407 5406 5406 5406 5406 5406 5405 5404 5405 5409 5407 5405 5406 5407 5407 5408 5410 5412 5412 5412 5412 5411 5409 5412 5422 5431 5438 5447 5454 5460 5460 5472 5476 5480 5503 5511 5514 5512 5507 5525 5517 5529
5408 5406 5405 5404 5404 5403 5403 5403 5402 5398 5396 5402 5398 5396 5397 5398 5398 5398 5400 5402 5404 5404 5402 5401 5402 5407 5416 5418 5429 5439 5445 5450 5457 5467 5466 5476 5491 5497 5498 5495 5510 5506 5509 5515
5404 5403 5401 5400 5399 5399 5398 5398 5396 5392 5388 5390 5390 5390 5386 5386 5386 5386 5393 5391 5392 5393 5394 5393 5394 5398 5406 5413 5422 5430 5439 5450 5455 5459 5461 5466 5472 5480 5487 5498 5494 5498 5500 5506
5399 5397 5396 5395 5394 5394 5392 5392 5391 5388 5382 5382 5380 5379 5376 5375 5376 5375 5377 5378 5380 5382 5384 5388 5389 5393 5397 5405 5411 5421 5430 5436 5443 5453 5453 5453 5462 5472 5478 5479 5485 5485 5486 5491
5394 5391 5390 5389 5388 5388 5387 5387 5385 5382 5378 5375 5371 5368 5365 5364 5365 5366 5366 5369 5372 5373 5379 5382 5384 5385 5391 5397 5405 5412 5418 5423 5428 5435 5438 5440 5445 5452 5462 5468 5471 5471 5477 5481
5391 5386 5383 5382 5381 5381 5381 5381 5379 5375 5373 5371 5366 5361 5358 5357 5356 5358 5360 5362 5364 5367 5371 5374 5376 5380 5383 5388 5394 5402 5409 5413 5418 5425 5430 5431 5436 5441 5447 5454 5457 5463 5468 5474
5387 5382 5378 5375 5374 5374 5375 5374 5373 5370 5369 5367 5363 5359 5357 5355 5354 5354 5354 5355 5357 5360 5364 5365 5370 5375 5378 5382 5385 5395 5404 5408 5413 5417 5421 5427 5429 5434 5438 5445 5450 5455 5460 5465
5383 5377 5373 5370 5367 5366 5367 5368 5367 5364 5363 5362 5361 5359 5356 5353 5351 5350 5349 5350 5351 5354 5359 5362 5365 5369 5371 5374 5383 5390 5394 5398 5403 5408 5411 5420 5423 5428 5433 5440 5443 5448 5451 5454
5379 5373 5368 5364 5361 5359 5359 5361 5360 5359 5358 5358 5358 5357 5355 5353 5351 5350 5347 5348 5350 5354 5358 5358 5359 5362 5362 5366 5374 5381 5384 5389 5395 5398 5404 5415 5418 5423 5427 5431 5435 5440 5444 5447
5374 5369 5364 5358 5355 5353 5352 5352 5353 5353 5353 5352 5352 5354 5353 5351 5350 5350 5350 5350 5351 5353 5354 5355 5355 5357 5358 5357 5370 5374 5379 5384 5387 5392 5398 5404 5413 5419 5421 5423 5427 5430 5435 5439
5370 5364 5359 5355 5350 5347 5346 5345 5346 5346 5348 5346 5347 5347 5348 5347 5346 5347 5347 5348 5348 5349 5350 5351 5353 5352 5352 5356 5362 5368 5371 5375 5378 5384 5392 5400 5405 5411 5416 5418 5421 5426 5429 5432
5364 5359 5355 5351 5346 5342 5339 5338 5338 5339 5340 5340 5340 5341 5342 5342 5342 5343 5344 5344 5345 5345 5346 5347 5348 5349 5351 5353 5355 5355 5359 5365 5371 5378 5385 5390 5395 5402 5406 5410 5414 5418 5421 5423
5359 5354 5350 5345 5341 5337 5334 5331 5331 5332 5333 5334 5335 5335 5335 5335 5337 5337 5338 5339 5340 5340 5342 5343 5344 5346 5347 5349 5351 5352 5355 5358 5364 5370 5376 5382 5388 5392 5396 5400 5403 5407 5410 5413
5353 5349 5345 5341 5336 5333 5330 5326 5325 5325 5326 5327 5329 5331 5331 5331 5331 5332 5333 5333 5334 5335 5337 5337 5338 5340 5341 5343 5345 5347 5348 5351 5355 5360 5365 5372 5378 5381 5385 5389 5392 5395 5398 5400
5347 5343 5340 5336 5333 5329 5325 5322 5320 5319 5319 5321 5322 5324 5326 5327 5327 5327 5328 5329 5330 5331 5332 5333 5335 5335 5336 5338 5339 5342 5344 5346 5349 5353 5358 5363 5368 5371 5374 5377 5380 5382 5384 5389
5340 5336 5334 5330 5326 5324 5321 5318 5316 5314 5313 5314 5316 5318 5320 5321 5322 5323 5324 5326 5326 5327 5328 5329 5330 5331 5333 5334 5336 5338 5341 5344 5346 5349 5353 5357 5360 5363 5365 5368 5371 5374 5378 5381
5333 5330 5327 5324 5321 5318 5316 5314 5312 5311 5310 5309 5310 5311 5313 5314 5316 5318 5319 5320 5321 5322 5324 5325 5326 5328 5330 5331 5333 5336 5338 5340 5343 5346 5349 5352 5355 5358 5361 5363 5366 5369 5373 5376
5326 5323 5320 5317 5315 5313 5311 5310 5308 5307 5306 5305 5305 5304 5305 5307 5308 5310 5311 5313 5315 5318 5319 5320 5322 5324 5326 5328 5330 5332 5335 5337 5339 5342 5344 5347 5350 5353 5356 5359 5362 5365 5368 5370
5318 5316 5313 5310 5309 5307 5306 5305 5304 5304 5303 5302 5300 5300 5300 5300 5301 5303 5304 5307 5309 5311 5313 5315 5317 5319 5321 5323 5326 5328 5330 5332 5335 5337 5340 5342 5345 5348 5351 5354 5356 5359 5361 5363
Wind_Speed
15 14 16 20 20 22 24 24 23 22 25 26 27 24 25 25 25 32 44 54 62 65 62 60 53 50 52 70 72 74 72 68 71 73 75 74 74 73 70 67 64 65 62 70
12 13 12 14 18 22 22 24 24 24 24 24 21 20 20 24 24 28 35 46 57 64 65 63 68 51 42 43 52 59 64 63 64 70 68 67 78 76 75 70 70 70 75 67
11 12 11 13 15 18 23 27 26 25 24 19 18 19 20 20 21 26 31 34 48 65 74 65 68 72 62 46 49 52 58 49 63 69 70 67 69 74 76 75 73 71 72 70
10 11 12 14 14 16 23 27 23 21 19 15 18 21 20 20 20 25 29 32 35 49 68 78 56 67 65 62 52 55 53 51 53 63 62 60 64 65 66 64 71 63 71 68
11 10 10 12 13 14 19 22 19 21 18 17 18 20 18 20 18 22 25 32 35 36 46 76 76 56 65 57 50 51 56 61 63 64 61 60 63 61 65 68 73 73 70 69
12 9 7 7 11 13 18 18 17 20 18 18 19 16 18 19 21 22 19 26 31 36 33 52 75 70 72 67 60 62 58 59 60 72 67 68 70 66 69 70 68 71 77 66
12 11 9 6 7 12 14 16 19 20 14 18 16 17 18 17 18 18 19 22 26 20 33 44 62 83 75 78 72 60 59 60 53 59 57 66 55 51 56 63 58 64 64 67
13 12 10 8 6 8 11 12 16 17 9 12 11 13 15 18 19 22 21 21 22 23 27 35 45 59 77 71 89 63 62 59 70 61 57 56 50 46 42 44 49 46 47 55
14 10 8 8 8 8 8 9 13 16 16 8 16 19 20 18 20 22 21 21 24 26 28 34 44 59 65 68 75 61 51 51 56 58 63 63 50 53 37 46 44 29 39 50
14 11 9 9 10 10 10 13 17 22 26 15 26 26 27 27 29 26 25 25 25 26 33 37 43 47 55 66 71 65 63 58 62 65 63 55 49 60 57 56 31 33 28 36
15 13 12 13 14 14 14 15 19 26 32 26 27 26 30 32 32 30 23 30 30 29 31 40 40 43 52 65 60 70 77 66 62 58 54 71 48 74 66 52 45 43 39 36
17 15 15 15 15 16 17 15 20 26 33 30 28 29 28 30 26 28 28 35 35 34 35 35 36 32 38 42 45 40 53 36 32 64 48 47 65 57 47 45 43 39 30 28
19 17 16 16 16 17 18 16 18 26 33 24 26 26 28 29 26 27 28 33 35 36 30 27 26 25 29 44 50 48 52 36 29 46 34 36 51 67 57 48 36 34 43 38
21 17 17 17 19 19 17 16 19 25 23 22 19 20 15 15 20 22 21 22 33 34 29 28 28 22 28 28 41 54 49 45 39 28 25 20 29 32 36 46 30 32 34 37
26 19 16 17 18 20 18 15 19 18 19 14 13 8 9 14 15 17 19 22 27 35 34 36 32 27 26 28 42 62 59 51 48 41 23 16 20 28 23 20 27 34 34 34
29 25 19 16 17 17 18 14 15 16 18 12 9 9 11 6 6 9 11 15 23 32 31 27 26 24 24 29 29 30 35 39 54 49 44 17 15 20 25 30 32 34 42 43
30 27 24 17 15 16 19 17 14 16 18 14 11 7 4 5 2 3 1 6 13 20 19 11 10 14 24 33 32 27 26 24 25 28 45 46 26 22 25 27 31 37 38 38
29 27 24 21 16 16 19 20 16 15 15 17 21 13 14 11 8 5 5 9 15 16 18 17 19 23 23 31 38 36 31 29 24 22 25 35 42 34 27 27 25 21 22 35
28 28 25 22 19 13 17 21 19 18 16 18 23 20 19 19 15 11 11 18 20 21 22 16 15 15 21 16 20 29 38 46 44 41 41 35 27 35 42 35 33 36 31 27
27 27 27 22 20 18 14 17 22 19 17 17 19 21 23 22 16 11 10 12 17 21 19 17 17 16 18 19 24 30 36 44 42 40 36 36 42 37 39 41 41 34 28 27
25 25 26 26 21 19 16 13 19 21 20 18 17 17 20 20 18 18 15 14 15 14 12 18 17 13 17 21 23 25 33 38 44 46 43 40 36 37 41 42 39 39 37 37
26 23 23 24 22 19 17 13 13 21 21 20 19 15 9 13 17 18 19 18 19 18 16 20 23 23 22 21 21 21 22 26 27 26 29 31 29 27 33 38 33 34 35 36
27 25 23 23 22 20 17 15 11 14 21 19 18 18 15 11 10 12 17 18 16 16 14 14 13 15 17 18 18 18 21 21 23 24 24 28 27 25 27 30 35 36 33 35
28 25 24 22 22 19 16 15 12 9 13 19 18 20 17 16 15 14 13 14 14 14 13 12 13 13 13 13 13 15 17 15 15 16 17 19 21 26 29 30 31 34 37 39
27 26 24 22 22 19 16 13 14 12 10 11 18 21 23 24 25 24 23 22 21 17 15 13 12 13 14 12 12 11 11 11 11 12 14 17 19 23 27 29 30 32 32 31
26 24 24 24 22 19 17 14 12 11 9 10 11 13 17 22 24 25 26 26 24 20 18 17 15 14 13 14 15 16 17 18 19 20 20 20 21 22 23 24 24 24 22 21
24 24 25 23 22 19 18 14 12 11 10 7 5 6 10 14 17 22 25 23 22 21 20 19 19 18 18 18 17 18 19 19 19 19 20 20 21 21 21 21 21 20 20 20
Wind_Direction
279 275 262 248 243 243 251 250 250 250 253 252 258 259 256 252 241 237 231 222 216 218 217 222 220 232 245 244 241 242 241 244 241 243 247 246 246 248 252 255 260 256 255 256
277 268 263 254 244 237 241 244 242 247 244 253 262 260 249 244 237 237 237 230 219 211 209 218 216 216 216 225 231 239 238 239 241 240 241 245 247 247 250 251 257 260 261 257
285 270 257 260 248 238 232 238 242 246 247 249 255 262 255 246 238 234 236 234 227 218 212 212 215 217 219 222 217 220 226 228 236 238 243 245 247 249 251 253 257 261 261 261
299 280 263 248 252 246 233 236 242 244 249 240 251 254 252 248 246 240 234 236 235 228 220 216 224 213 212 215 218 216 219 227 229 234 237 237 242 244 247 250 256 257 262 258
322 304 277 255 255 251 231 240 244 248 256 256 255 257 259 259 252 253 245 244 238 239 233 223 225 220 212 201 209 221 228 232 235 235 232 234 241 244 246 247 254 256 257 256
6 350 325 258 242 238 240 245 249 253 253 257 258 263 267 265 254 249 256 250 251 243 237 231 228 222 220 208 205 213 216 218 231 240 240 239 239 241 250 254 253 255 255 256
7 2 1 331 264 246 246 247 254 262 274 266 271 273 259 250 251 253 242 246 250 247 247 246 229 219 222 217 209 213 211 207 218 227 225 231 241 244 245 248 251 249 255 249
357 346 337 322 311 273 263 264 269 277 296 279 276 275 263 252 247 250 248 246 256 246 250 254 252 242 229 214 213 215 212 212 221 229 233 236 233 229 230 240 255 251 251 245
341 325 309 298 290 286 287 291 282 291 304 9 287 281 276 273 269 255 249 241 249 264 262 252 254 242 234 225 217 216 218 215 220 233 232 234 228 226 224 247 257 239 246 244
324 314 291 283 286 286 295 301 292 286 308 326 291 287 284 274 273 267 258 248 251 251 251 255 255 254 242 238 222 223 227 230 236 232 236 230 232 230 240 251 238 257 250 237
301 296 279 276 275 275 289 295 299 297 305 309 293 289 281 278 272 267 261 257 245 243 248 254 260 258 244 227 223 224 224 229 239 237 244 241 244 233 243 247 259 266 254 245
303 282 275 268 269 275 283 297 297 293 289 308 299 291 285 276 268 256 248 244 242 238 239 249 258 258 252 241 234 222 213 223 226 224 240 234 234 238 238 247 248 231 232 229
330 296 272 258 262 265 273 285 296 289 292 298 295 287 272 270 256 248 248 240 234 240 240 246 250 249 251 247 242 238 229 231 229 216 230 216 212 227 220 234 231 243 245 252
335 322 291 267 253 256 265 275 288 297 287 304 317 306 280 258 254 257 259 250 233 234 231 230 234 245 250 250 244 239 234 240 238 232 228 231 227 214 219 230 235 247 254 260
339 331 313 285 266 249 251 267 290 294 273 312 324 312 277 263 256 261 256 240 240 230 232 238 243 248 247 249 249 241 247 247 242 246 251 257 247 236 245 262 249 247 255 265
338 332 324 301 278 255 242 252 278 278 264 289 305 302 291 314 285 281 259 252 244 232 233 245 254 258 249 228 232 234 242 239 243 246 249 242 232 231 236 247 262 260 256 256
338 335 328 314 288 264 241 243 256 268 267 267 280 292 309 297 235 358 344 217 216 227 219 218 225 250 248 224 209 204 207 220 230 249 256 247 242 238 245 244 246 249 253 256
336 337 332 323 306 277 249 242 241 256 267 253 246 260 270 290 294 237 232 209 214 230 247 260 271 267 256 230 215 219 218 223 223 246 259 242 239 251 250 248 250 250 249 238
331 335 335 329 319 297 265 245 241 241 251 247 249 260 253 259 270 276 269 244 257 259 259 259 249 235 236 235 226 227 237 242 247 255 255 250 251 247 254 262 265 268 269 263
327 329 332 333 327 319 297 256 243 243 237 253 257 256 259 265 257 225 229 241 249 270 265 256 238 242 237 235 237 238 238 238 238 244 246 251 254 256 251 253 258 259 267 270
323 326 328 330 327 321 310 281 246 241 242 241 248 257 261 250 235 217 212 226 236 236 240 239 245 248 245 238 241 244 243 240 233 236 239 247 252 248 246 251 254 263 264 267
319 320 321 325 324 321 315 303 263 242 244 247 245 235 246 228 219 220 215 219 226 231 234 237 243 249 249 250 246 244 244 236 232 233 240 244 244 244 250 252 247 245 249 252
317 318 318 320 321 316 311 307 290 254 238 246 254 257 250 250 233 222 222 227 228 228 232 236 242 241 243 239 237 234 228 225 219 218 221 226 226 231 231 232 235 238 239 242
313 315 315 312 316 317 312 302 289 276 247 235 237 237 238 249 248 239 233 236 242 245 249 250 241 237 227 219 220 221 215 207 202 201 206 212 222 227 226 227 227 230 231 233
308 312 312 307 307 311 308 304 293 277 258 247 238 238 237 237 238 238 243 247 247 250 255 253 247 245 238 225 218 211 218 225 230 230 230 229 230 232 231 230 231 234 233 230
299 308 305 300 300 304 301 296 291 284 264 256 251 243 238 238 239 242 246 249 250 252 249 246 241 233 226 218 213 210 213 214 215 216 218 218 219 219 220 219 218 217 217 220
294 296 298 300 296 294 295 287 282 278 264 261 268 254 243 240 240 241 241 244 242 239 237 235 233 229 225 221 216 214 213 212 212 213 213 214 216 218 221 224 227 233 238 241